Wind_Speed
9 11 12 13 15 16 18 19 21 21 22 22 23 22 22 23 24 24 24 24 23 23 24 23 24 24 24 25 25 25 25 26 26 27 28 28 28 27 28 29 29 28 28 28
10 11 13 15 16 18 19 20 21 21 22 23 22 22 23 24 24 24 24 24 24 24 24 24 24 24 25 25 25 25 26 26 27 27 28 28 28 27 28 28 27 27 27 28
11 12 13 15 16 18 19 21 21 22 22 22 23 23 23 24 23 24 24 23 23 23 23 24 24 25 24 24 25 26 27 27 27 28 28 28 27 27 27 27 27 27 28 28
11 13 14 16 17 19 20 21 22 22 23 23 24 24 22 22 22 23 23 23 24 24 24 25 25 25 25 26 26 27 27 27 27 29 28 28 28 28 27 27 26 27 28 28
13 14 16 17 18 20 21 21 23 23 24 24 24 25 24 23 23 22 22 23 24 24 24 24 25 26 26 27 27 27 27 27 28 28 28 28 28 28 27 26 27 27 27 27
14 15 17 18 19 20 22 22 23 23 24 24 24 26 25 24 23 23 23 23 24 24 24 25 25 26 27 27 27 28 28 28 28 28 29 28 28 28 27 26 27 26 26 26
16 17 18 19 20 21 22 24 25 25 25 25 25 26 25 24 24 24 24 25 25 26 25 26 26 27 28 28 28 29 29 28 28 28 29 28 28 27 26 26 27 26 25 25
18 18 19 20 21 22 23 24 25 27 27 26 26 26 25 26 25 25 24 25 26 26 26 26 27 27 27 28 27 28 28 28 27 27 27 26 26 26 26 25 25 25 24 24
20 20 20 21 22 23 24 25 26 28 29 29 27 25 24 25 26 25 25 25 27 26 26 26 26 27 27 27 26 26 26 26 26 25 25 25 25 25 24 24 24 24 23 23
22 23 22 23 24 24 25 26 27 28 30 30 28 27 26 26 25 25 25 25 25 25 24 24 25 26 26 25 25 24 24 23 24 24 24 24 24 24 23 23 23 23 21 21
24 25 25 25 25 26 27 27 28 29 29 30 31 29 28 27 26 26 26 25 25 25 24 24 24 24 24 25 24 23 22 21 22 22 23 24 24 24 23 22 21 22 21 20
26 27 28 28 28 28 28 28 28 29 30 31 33 32 29 29 28 27 27 26 26 25 25 24 24 23 24 24 24 23 22 22 22 22 21 21 22 21 20 20 20 20 19 18
28 29 30 29 29 30 30 30 30 31 32 32 32 31 29 29 28 28 28 27 26 25 25 25 24 23 23 23 23 23 22 21 21 20 19 19 18 18 17 18 18 18 17 17
30 31 31 32 31 32 31 31 31 31 32 32 31 30 29 28 28 28 27 27 26 26 25 24 24 23 23 23 23 23 22 21 20 18 18 17 17 17 17 18 17 16 16 16
31 32 32 32 33 33 33 32 31 31 31 32 31 30 29 28 28 27 26 25 25 24 24 23 23 22 21 21 22 23 21 20 18 18 17 16 16 16 17 17 16 16 15 15
31 32 33 32 32 32 32 31 31 31 30 30 30 29 28 28 27 26 25 24 24 23 22 22 22 21 20 20 20 21 21 19 18 18 17 16 16 16 15 15 15 15 14 14
32 33 33 33 33 33 33 31 30 30 30 29 29 28 27 26 25 25 24 23 23 21 21 21 21 20 19 19 19 20 19 18 18 18 17 16 16 15 14 14 14 14 13 14
33 32 33 33 32 32 32 30 28 28 27 27 27 27 26 25 24 23 23 22 21 20 20 20 19 19 18 18 18 17 17 17 17 16 16 15 14 14 14 14 13 14 14 14
31 31 32 32 32 32 30 28 27 26 25 26 26 25 25 24 23 22 21 20 20 19 18 19 18 18 18 17 17 16 16 16 15 15 14 14 13 12 12 12 12 12 12 12
31 31 32 31 31 31 30 28 27 26 25 25 25 25 25 23 23 21 20 18 17 17 17 17 17 17 16 16 16 16 15 15 14 14 13 13 12 12 12 11 11 12 11 11
31 31 30 30 30 29 29 27 25 24 23 23 24 23 22 21 20 20 19 18 16 16 16 17 17 16 15 15 15 15 14 13 13 13 12 12 11 11 11 11 11 11 11 11
32 32 31 30 29 28 27 26 25 24 24 23 22 22 21 20 19 19 18 17 16 15 15 15 15 14 14 13 13 13 12 12 11 11 10 10 10 10 10 11 11 10 11 11
33 32 31 30 29 27 26 25 24 23 23 22 21 20 19 18 18 18 18 17 16 14 13 13 13 13 12 12 11 11 10 10 10 9 9 9 9 10 10 10 11 11 11 11
33 32 31 30 27 25 24 24 23 23 22 21 20 19 18 17 17 17 17 15 14 13 12 12 11 11 10 10 10 9 8 8 9 9 9 9 10 10 9 10 10 11 10 11
31 31 30 29 26 24 23 24 23 22 21 20 19 19 19 17 15 15 14 12 11 11 10 10 9 8 8 8 9 8 8 8 9 8 8 8 9 9 9 9 10 10 11 12
30 30 29 27 25 24 23 23 23 22 21 20 19 19 17 14 13 12 11 10 10 9 9 8 8 7 7 7 7 7 7 7 7 7 7 8 9 9 9 10 10 10 12 12
Wind_Direction
264 265 270 271 273 276 282 285 287 288 289 290 292 294 295 296 298 297 296 297 296 295 293 295 297 298 295 295 295 295 295 294 294 295 296 295 294 290 288 286 284 281 279 275
272 274 278 278 280 282 284 288 290 291 292 293 294 295 297 298 299 299 298 297 297 297 296 296 295 295 295 295 296 295 294 295 296 296 296 297 295 292 290 288 286 283 280 276
280 282 284 285 286 287 288 290 293 294 294 295 296 297 298 299 298 298 299 298 297 298 297 296 294 294 295 298 298 297 297 296 296 296 297 299 296 294 292 288 284 283 280 277
288 289 288 289 290 292 292 293 294 295 297 299 300 300 300 301 299 298 300 300 299 298 298 296 296 295 296 299 300 299 299 296 297 296 296 297 297 294 293 288 282 279 278 276
291 292 293 292 293 294 295 296 295 296 297 299 302 302 304 302 300 298 298 299 299 298 298 297 297 296 298 299 299 299 299 297 297 297 298 298 298 296 292 288 284 280 278 276
295 294 295 296 295 296 297 298 298 298 298 299 303 303 304 306 304 301 300 301 300 297 297 297 297 297 297 299 299 298 297 296 297 298 300 299 298 297 295 292 287 282 279 279
297 296 298 299 299 299 300 301 301 301 300 301 304 304 307 309 307 306 304 303 302 298 297 296 296 297 298 300 298 296 295 295 297 300 301 299 299 295 294 292 288 283 281 280
297 298 299 301 300 302 303 304 304 304 305 305 305 306 309 309 310 309 306 306 306 301 297 298 298 299 300 301 299 296 294 295 297 299 299 297 297 295 293 293 289 285 283 281
300 300 299 300 302 302 303 305 304 304 304 305 307 307 308 309 310 309 307 307 308 306 299 298 299 299 301 301 300 298 297 297 298 300 299 297 296 296 294 294 293 289 285 283
303 302 302 301 301 302 302 303 303 304 305 306 306 307 307 307 305 306 307 307 307 307 303 301 301 301 301 300 301 302 302 301 300 301 299 297 297 296 294 293 293 292 288 285
302 302 303 302 301 302 302 301 300 300 301 301 303 305 306 306 303 303 305 307 307 303 303 303 302 301 300 300 303 304 304 304 304 303 301 298 296 295 293 293 295 293 289 290
303 303 302 301 301 300 300 299 299 299 299 299 300 304 305 303 303 302 301 302 303 302 302 305 304 302 301 299 300 302 303 305 305 305 305 303 301 300 297 296 296 296 292 289
302 302 302 300 299 299 298 298 297 297 297 299 299 302 303 302 302 301 299 299 298 300 301 302 304 301 301 302 301 302 303 305 306 308 308 305 306 305 302 304 300 295 293 290
301 301 301 301 301 299 298 296 295 295 297 298 298 299 299 299 300 299 298 297 297 298 301 302 304 302 304 307 306 308 305 307 308 309 309 307 307 308 304 303 306 304 299 294
301 300 300 299 299 298 297 297 296 296 295 295 297 297 298 299 299 299 298 298 297 299 300 302 303 302 304 307 308 310 308 308 307 307 306 307 306 308 309 308 307 309 306 301
301 300 300 300 298 296 295 294 295 295 294 293 294 294 295 296 297 298 298 300 300 301 302 303 303 302 304 307 308 310 309 306 305 307 306 307 308 309 310 312 311 310 307 305
303 301 300 300 299 297 295 297 296 294 293 293 292 293 294 295 296 298 297 298 298 299 301 303 303 303 303 305 308 310 309 308 309 309 309 307 308 311 312 313 313 312 309 308
305 305 304 303 303 299 300 298 297 294 293 293 292 294 296 297 297 296 296 297 295 295 298 303 303 303 304 307 310 311 312 310 311 314 316 315 312 311 311 311 312 312 311 310
306 306 306 306 306 304 301 298 297 295 292 293 292 293 294 295 295 294 296 296 294 294 295 299 300 302 304 306 309 308 311 310 311 316 320 323 324 323 320 319 319 319 318 318
305 305 305 306 306 305 304 301 299 296 293 293 292 293 294 294 294 294 294 293 291 289 293 297 300 302 304 307 309 310 313 313 316 319 322 325 328 332 330 327 327 326 325 324
303 302 303 304 304 305 305 302 299 297 295 293 292 293 294 293 295 295 293 291 288 288 291 294 297 300 303 306 311 314 315 316 317 322 326 326 329 334 336 335 334 335 334 331
303 304 305 305 304 304 305 301 297 296 295 294 293 293 292 290 291 293 293 291 291 288 287 291 295 298 302 307 312 315 318 320 320 324 328 327 329 333 333 336 339 338 338 338
301 303 303 303 303 301 299 299 296 294 294 294 293 292 290 289 290 293 292 289 288 286 284 288 294 297 301 307 311 317 320 322 323 325 328 328 332 334 333 337 340 341 341 344
300 300 300 298 297 295 293 293 293 291 292 293 292 290 291 290 288 292 290 285 284 284 283 284 291 300 305 310 310 313 319 324 330 329 331 334 337 340 342 342 345 347 348 348
299 297 297 295 293 289 286 286 288 289 290 289 289 290 291 288 284 286 283 279 281 284 281 281 291 300 304 308 311 314 317 319 326 334 337 341 342 342 347 350 351 351 350 349
296 295 293 292 289 286 287 286 286 286 286 288 290 290 289 284 284 282 278 276 279 281 280 286 293 299 302 304 308 311 322 323 328 335 341 347 349 350 351 351 351 351 351 351
Height
5874 5874 5873 5872 5872 5871 5870 5869 5868 5867 5865 5863 5861 5860 5858 5856 5854 5852 5850 5848 5846 5844 5842 5840 5838 5836 5834 5831 5829 5827 5825 5823 5820 5818 5815 5813 5811 5809 5808 5806 5804 5803 5802 5802
5873 5872 5871 5870 5869 5868 5867 5865 5864 5863 5861 5859 5857 5856 5854 5851 5849 5847 5845 5843 5840 5839 5836 5835 5833 5830 5828 5826 5824 5822 5820 5817 5815 5812 5809 5807 5805 5802 5800 5798 5796 5795 5794 5794
5870 5870 5868 5867 5866 5865 5863 5862 5860 5858 5857 5855 5853 5852 5850 5847 5845 5842 5840 5837 5835 5833 5831 5829 5827 5825 5822 5819 5817 5816 5814 5811 5809 5806 5803 5801 5799 5797 5794 5792 5789 5788 5787 5786
5869 5868 5866 5865 5863 5861 5860 5858 5856 5854 5852 5850 5849 5846 5846 5843 5840 5837 5835 5832 5829 5828 5825 5823 5821 5819 5816 5814 5812 5809 5807 5805 5802 5799 5797 5794 5792 5789 5787 5784 5782 5780 5779 5778
5866 5865 5863 5862 5860 5857 5855 5854 5851 5849 5847 5845 5844 5841 5840 5837 5835 5832 5829 5827 5824 5822 5820 5818 5816 5813 5810 5808 5805 5803 5801 5798 5795 5793 5790 5787 5784 5782 5779 5776 5774 5773 5772 5771
5864 5862 5860 5858 5856 5854 5851 5849 5847 5845 5843 5841 5839 5837 5835 5832 5829 5827 5824 5822 5819 5817 5814 5812 5810 5807 5804 5801 5799 5796 5793 5791 5788 5785 5782 5779 5777 5774 5772 5769 5768 5766 5765 5764
5861 5859 5857 5854 5852 5850 5847 5845 5842 5839 5838 5836 5834 5831 5830 5827 5824 5821 5819 5816 5813 5810 5808 5806 5803 5800 5797 5794 5791 5788 5786 5783 5780 5778 5775 5772 5770 5767 5765 5763 5761 5759 5758 5757
5857 5856 5854 5851 5848 5846 5843 5841 5838 5834 5832 5830 5829 5826 5825 5822 5819 5816 5813 5810 5807 5804 5801 5799 5797 5794 5790 5787 5784 5781 5778 5775 5773 5770 5768 5765 5763 5761 5759 5757 5754 5752 5751 5750
5852 5851 5849 5846 5843 5841 5838 5836 5833 5829 5826 5824 5823 5821 5820 5816 5813 5810 5808 5805 5801 5797 5795 5793 5790 5787 5784 5780 5776 5773 5770 5768 5766 5763 5761 5758 5756 5755 5753 5750 5748 5746 5744 5743
5847 5845 5844 5842 5839 5837 5834 5830 5827 5824 5820 5817 5816 5815 5814 5811 5808 5805 5802 5799 5796 5792 5789 5787 5784 5781 5778 5774 5770 5767 5764 5762 5760 5758 5755 5753 5751 5749 5746 5744 5743 5740 5738 5736
5842 5840 5838 5836 5833 5831 5829 5826 5822 5818 5815 5812 5809 5811 5808 5805 5801 5799 5796 5793 5790 5787 5784 5782 5779 5775 5772 5769 5766 5762 5760 5757 5755 5753 5750 5748 5745 5742 5740 5738 5736 5734 5733 5731
5836 5833 5831 5830 5827 5824 5822 5819 5816 5813 5810 5806 5803 5805 5802 5799 5795 5793 5790 5788 5785 5782 5779 5776 5773 5770 5767 5764 5761 5758 5755 5753 5751 5748 5745 5742 5738 5735 5734 5732 5730 5729 5727 5726
5830 5827 5824 5823 5823 5819 5815 5812 5809 5806 5803 5800 5797 5798 5795 5791 5789 5786 5784 5781 5779 5776 5774 5771 5768 5765 5762 5759 5756 5754 5751 5748 5745 5743 5740 5738 5735 5732 5730 5728 5726 5724 5723 5722
5824 5821 5819 5816 5813 5810 5807 5805 5802 5799 5795 5793 5790 5788 5787 5785 5782 5780 5777 5775 5772 5770 5767 5765 5762 5760 5757 5754 5751 5749 5746 5743 5740 5738 5736 5734 5731 5729 5727 5724 5722 5720 5718 5717
5817 5815 5811 5808 5805 5801 5798 5796 5794 5791 5789 5785 5783 5781 5779 5777 5775 5773 5771 5768 5766 5764 5762 5760 5757 5755 5752 5750 5747 5745 5742 5739 5737 5734 5732 5730 5727 5725 5722 5720 5718 5717 5715 5713
5810 5806 5803 5801 5798 5794 5791 5789 5787 5784 5781 5779 5776 5775 5772 5770 5769 5767 5765 5762 5760 5759 5756 5754 5752 5750 5748 5745 5743 5740 5738 5735 5733 5731 5728 5726 5723 5721 5719 5717 5715 5713 5712 5710
5803 5799 5795 5792 5789 5785 5783 5782 5779 5777 5774 5772 5769 5768 5766 5764 5762 5760 5759 5757 5755 5753 5752 5750 5748 5745 5743 5741 5739 5736 5734 5732 5730 5727 5724 5722 5720 5717 5715 5714 5712 5710 5708 5707
5794 5790 5786 5783 5781 5777 5778 5773 5771 5768 5766 5764 5761 5760 5759 5757 5756 5754 5752 5751 5749 5748 5747 5745 5743 5741 5739 5737 5735 5733 5730 5728 5726 5724 5721 5718 5716 5714 5712 5711 5709 5708 5706 5704
5787 5782 5778 5775 5772 5769 5769 5765 5762 5760 5759 5757 5755 5754 5752 5751 5750 5749 5747 5745 5743 5742 5741 5740 5739 5737 5735 5733 5731 5729 5727 5724 5722 5720 5718 5715 5713 5711 5710 5708 5707 5705 5703 5702
5780 5775 5772 5768 5764 5761 5761 5759 5755 5754 5751 5750 5748 5747 5746 5745 5744 5743 5741 5740 5738 5737 5737 5736 5734 5733 5731 5729 5727 5725 5723 5721 5718 5716 5715 5712 5711 5709 5707 5706 5704 5703 5701 5699
5772 5769 5765 5761 5757 5755 5753 5751 5749 5747 5746 5743 5742 5740 5739 5738 5737 5737 5735 5734 5733 5732 5732 5731 5730 5729 5727 5725 5723 5721 5719 5717 5715 5713 5712 5710 5709 5707 5706 5704 5703 5701 5699 5698
5764 5760 5757 5754 5751 5751 5747 5744 5742 5740 5738 5736 5735 5734 5733 5732 5731 5730 5729 5728 5728 5727 5727 5726 5725 5724 5723 5721 5719 5718 5716 5715 5713 5711 5710 5708 5707 5706 5704 5703 5701 5699 5698 5696
5756 5753 5750 5748 5747 5744 5740 5737 5735 5733 5732 5731 5730 5729 5727 5726 5726 5725 5724 5723 5723 5723 5722 5721 5721 5720 5719 5718 5716 5715 5714 5712 5711 5710 5708 5707 5706 5704 5703 5701 5700 5698 5696 5694
5748 5746 5742 5740 5739 5736 5734 5731 5729 5728 5727 5725 5724 5723 5722 5721 5720 5719 5719 5718 5718 5718 5718 5717 5717 5716 5715 5715 5714 5713 5712 5711 5710 5708 5707 5706 5704 5703 5701 5700 5698 5697 5695 5693
5740 5737 5734 5732 5731 5729 5728 5725 5724 5723 5721 5720 5719 5718 5717 5716 5715 5714 5714 5714 5714 5713 5713 5713 5713 5713 5712 5712 5711 5711 5710 5709 5708 5707 5706 5705 5704 5702 5701 5699 5697 5696 5694 5692
5732 5728 5725 5724 5723 5721 5721 5720 5718 5717 5716 5715 5714 5713 5712 5710 5710 5710 5710 5710 5710 5710 5710 5710 5710 5710 5709 5709 5709 5709 5708 5708 5707 5706 5705 5704 5703 5702 5700 5699 5697 5695 5693 5692